Hyde Park, UT

2:48 PM MST on January 17, 2017 (GMT -0700)
Logan-Cache

Weather History for KLGU - December, 2012

Change the Weather History Date:

Sunday, December 30, 2012

  Actual Average Record
Temperature  
Mean Temperature 8 °F -  
Max Temperature 15 °F 28 °F 54 °F (2011)
Min Temperature 0 °F 9 °F -23 °F (1990)
Degree Days  
Heating Degree Days 58    
Moisture  
Dew Point 3 °F    
Average Humidity 88    
Maximum Humidity 100    
Minimum Humidity 79    
Precipitation  
Precipitation 0.00 in - - ()
Sea Level Pressure  
Sea Level Pressure 30.16 in    
Wind  
Wind Speed 0 mph (NNE)    
Max Wind Speed 5 mph    
Max Gust Speed -    
Visibility 3 miles    
Events Fog    
Averages and records for this station are not official NWS values.
T = Trace of Precipitation, MM = Missing Value Source: NWS Daily Summary

Daily Weather History Graph

Daily Weather History Graph

Search for Another Location

Airport or City:

Trip Planner

Search our weather history database for the weather conditions in past years. The results will help you decide how hot, cold, wet, or windy it might be!

Date:

Astronomy

Dec. 30, 2012 Rise Set
Actual Time 7:54 AM MST 5:06 PM MST
Civil Twilight 7:23 AM MST 5:37 PM MST
Nautical Twilight 6:48 AM MST 6:12 PM MST
Astronomical Twilight 6:14 AM MST 6:46 PM MST
Moon 7:43 PM MST (12/30) 9:03 AM MST (12/30)
Length of Visible Light 10h 14m
Length of Day
9h 11m
Waning Gibbous, 95% of the Moon is Illuminated
Dec 30
Waning Gibbous
Jan 4
Last Quarter
Jan 11
New
Jan 18
First Quarter
Jan 26
Full

Hourly Weather History & Observations

Time (MST) Temp. Windchill Dew Point Humidity Pressure Visibility Wind Dir Wind Speed Gust Speed Precip Events Conditions
12:00 AM -0.4 °F - -2.2 °F 92% 30.03 in 1.2 mi Calm Calm - N/A   Mostly Cloudy
12:06 AM -0.4 °F - -4.0 °F 85% 30.03 in 1.5 mi Calm Calm - N/A   Mostly Cloudy
12:18 AM 1.4 °F - -0.4 °F 92% 30.02 in 0.5 mi Calm Calm - N/A Fog Light Freezing Fog
12:41 AM 3.2 °F - -0.4 °F 85% 30.03 in 1.0 mi Calm Calm - N/A   Overcast
12:46 AM 3.2 °F - -0.4 °F 85% 30.03 in 0.5 mi Calm Calm - N/A Fog Light Freezing Fog
1:09 AM 3.2 °F - 1.4 °F 92% 30.02 in 1.5 mi Calm Calm - N/A   Overcast
1:24 AM 3.2 °F - 1.4 °F 92% 30.02 in 2.5 mi Calm Calm - N/A   Mostly Cloudy
1:30 AM 3.2 °F - 1.4 °F 92% 30.02 in 3.0 mi Calm Calm - N/A   Mostly Cloudy
2:51 AM 6.1 °F - 3.0 °F 87% 30.22 in 5.0 mi Calm Calm - N/A   Overcast
3:51 AM 5.0 °F - 1.9 °F 87% 30.24 in 4.0 mi Calm Calm - N/A   Overcast
4:11 AM 6.8 °F - 1.4 °F 79% 30.04 in 6.0 mi Calm Calm - N/A   Overcast
4:51 AM 6.1 °F - 3.0 °F 87% 30.25 in 5.0 mi Calm Calm - N/A   Overcast
5:51 AM 8.1 °F - 3.9 °F 83% 30.24 in 6.0 mi Calm Calm - N/A   Overcast
6:51 AM 8.1 °F 1.4 °F 5.0 °F 87% 30.25 in 6.0 mi WNW 3.5 mph - N/A   Overcast
7:51 AM 8.1 °F - 3.9 °F 83% 30.25 in 6.0 mi Calm Calm - N/A   Overcast
8:51 AM 10.0 °F - 7.0 °F 87% 30.24 in 4.0 mi Calm Calm - N/A   Overcast
9:51 AM 10.9 °F - 10.9 °F 100% 30.25 in 4.0 mi Calm Calm - N/A   Overcast
10:51 AM 12.0 °F 4.1 °F 7.0 °F 80% 30.27 in 5.0 mi NNE 4.6 mph - N/A   Haze
11:51 AM 12.0 °F - 7.0 °F 80% 30.28 in 4.0 mi Calm Calm - N/A   Haze
12:51 PM 12.9 °F - 9.0 °F 84% 30.25 in 5.0 mi Calm Calm - N/A   Clear
1:51 PM 14.0 °F - 10.0 °F 84% 30.22 in 5.0 mi Calm Calm - N/A   Scattered Clouds
2:51 PM 15.1 °F - 10.9 °F 84% 30.22 in 5.0 mi Calm Calm - N/A   Clear
3:51 PM 12.9 °F - 10.0 °F 88% 30.23 in 5.0 mi Calm Calm - N/A   Clear
4:51 PM 9.0 °F - 6.1 °F 88% 30.25 in 4.0 mi Calm Calm - N/A   Clear
5:51 PM 3.0 °F -4.4 °F 3.0 °F 100% 30.26 in 1.0 mi Variable 3.5 mph - N/A   Mist
5:56 PM 1.4 °F - -0.4 °F 92% 30.04 in 0.2 mi Calm Calm - N/A Fog Light Freezing Fog
6:25 PM 3.2 °F -4.2 °F 1.4 °F 92% 30.05 in 2.5 mi ENE 3.5 mph - N/A   Mostly Cloudy
6:27 PM 3.2 °F - 1.4 °F 92% 30.05 in 3.0 mi Calm Calm - N/A   Scattered Clouds
6:51 PM 3.9 °F - 1.0 °F 88% 30.27 in 5.0 mi Calm Calm - N/A   Clear
7:18 PM 1.4 °F - -0.4 °F 92% 30.06 in 2.5 mi Calm Calm - N/A   Clear
7:37 PM 1.4 °F - -0.4 °F 92% 30.06 in 2.0 mi Calm Calm - N/A   Clear
7:51 PM 1.9 °F - -2.0 °F 83% 30.29 in 1.5 mi Calm Calm - N/A   Scattered Clouds
8:02 PM -0.4 °F - -2.2 °F 92% 30.07 in 0.2 mi Calm Calm - N/A Fog Light Freezing Fog
8:22 PM 1.4 °F - -2.2 °F 85% 30.07 in 2.0 mi Calm Calm - N/A   Overcast
8:27 PM 3.2 °F - -0.4 °F 85% 30.06 in 4.0 mi Calm Calm - N/A   Overcast
9:51 PM 6.1 °F - 1.9 °F 83% 30.28 in 5.0 mi Calm Calm - N/A   Overcast
10:51 PM 7.0 °F 0.1 °F 3.9 °F 87% 30.28 in 5.0 mi NE 3.5 mph - N/A   Overcast
11:51 PM 9.0 °F - 5.0 °F 84% 30.27 in 4.0 mi Calm Calm - N/A   Overcast